REU978 LFPG-FMCZ

Flight info

Callsign REU978
Flight time N/A
Altitude 33000
Route OKASI DCT OKEKO DCT MOU DCT MADIV DCT MOKIP DCT TUFTA DCT KOGAS DCT MEDAM DCT NITAM DCT MOGBO DCT UPDIN DCT PNZ DCT MASOT/N0483F350 DCT LEVDI DCT NIMAN DCT ARLOS UN4 SALUN N705 BOPIX N710 TAKRI P751 LXR M999 JDW M559 RIBAM G650 RASKA/N0496F360 G650 ASM/N0493F370 UR780 SETIT DCT XADOX DCT DWA UN304 MOGDU UR775 UNPAR/N0489F380 UR775 BERIL/N0487F390 UR775 MAROF UM307 DZP
Aircraft B77W/H-SDE1E2E3FGHIJ2J3J4J5M1RWXY/LB1D1

Departure

Time N/A
Airport Charles de Gaulle International Airport (LFPG)

Arrival

Time 2026-04-26 07:16
Airport Dzaoudzi Pamandzi International Airport (FMCZ)
Time Latitude Longitude Altitude Speed Heading
2026-04-26 06:30 -7.93502 45.87343 37947 ft 496 kts 176°
2026-04-26 06:30 -7.96975 45.87548 37954 ft 495 kts 175°
2026-04-26 06:31 -8.03925 45.87958 37962 ft 496 kts 176°
2026-04-26 06:31 -8.10857 45.88368 37961 ft 498 kts 175°
2026-04-26 06:32 -8.17842 45.88781 37961 ft 499 kts 176°
2026-04-26 06:32 -8.24795 45.89191 37963 ft 498 kts 176°
2026-04-26 06:33 -8.31761 45.89603 37972 ft 500 kts 176°
2026-04-26 06:33 -8.38722 45.90015 37968 ft 498 kts 176°
2026-04-26 06:34 -8.45675 45.90426 37972 ft 499 kts 176°
2026-04-26 06:34 -8.52685 45.90841 37971 ft 500 kts 176°
2026-04-26 06:35 -8.59667 45.91255 37973 ft 502 kts 176°
2026-04-26 06:35 -8.66671 45.91669 37973 ft 501 kts 176°
2026-04-26 06:36 -8.73713 45.92087 37973 ft 503 kts 176°
2026-04-26 06:36 -8.80806 45.92507 37972 ft 503 kts 176°
2026-04-26 06:37 -8.87764 45.92920 37976 ft 504 kts 176°
2026-04-26 06:37 -8.94846 45.93340 37974 ft 503 kts 176°
2026-04-26 06:38 -9.01879 45.93757 37974 ft 502 kts 176°
2026-04-26 06:38 -9.08898 45.94174 37976 ft 504 kts 176°
2026-04-26 06:39 -9.15995 45.94595 37968 ft 504 kts 176°
2026-04-26 06:39 -9.23043 45.95014 37973 ft 503 kts 176°
2026-04-26 06:40 -9.30129 45.95435 37966 ft 503 kts 176°
2026-04-26 06:40 -9.37179 45.95855 37970 ft 508 kts 176°
2026-04-26 06:41 -9.44359 45.96282 37971 ft 521 kts 176°
2026-04-26 06:41 -9.51701 45.96719 37972 ft 528 kts 176°
2026-04-26 06:42 -9.59106 45.97160 37971 ft 528 kts 176°
2026-04-26 06:42 -9.66484 45.97599 37972 ft 528 kts 176°
2026-04-26 06:43 -9.73846 45.98038 37970 ft 527 kts 177°
2026-04-26 06:43 -9.81218 45.98478 37975 ft 529 kts 176°
2026-04-26 06:44 -9.88583 45.98917 37973 ft 528 kts 176°
2026-04-26 06:44 -9.95999 45.99359 37975 ft 528 kts 176°
2026-04-26 06:45 -10.03348 45.99797 37976 ft 527 kts 177°
2026-04-26 06:45 -10.10725 46.00232 37965 ft 528 kts 177°
2026-04-26 06:46 -10.18124 46.00669 37949 ft 526 kts 177°
2026-04-26 06:46 -10.25484 46.01104 37949 ft 528 kts 177°
2026-04-26 06:47 -10.32904 46.01542 37951 ft 530 kts 177°
2026-04-26 06:47 -10.40327 46.01982 37950 ft 528 kts 177°
2026-04-26 06:48 -10.47689 46.02417 37951 ft 530 kts 177°
2026-04-26 06:48 -10.55118 46.02857 37952 ft 529 kts 177°
2026-04-26 06:49 -10.62534 46.03297 37952 ft 529 kts 177°
2026-04-26 06:49 -10.69915 46.03734 37951 ft 529 kts 177°
2026-04-26 06:50 -10.77355 46.04176 37952 ft 530 kts 177°
2026-04-26 06:50 -10.84745 46.04614 37953 ft 530 kts 177°
2026-04-26 06:51 -10.92145 46.05053 37954 ft 530 kts 178°
2026-04-26 06:51 -11.03276 46.05715 37955 ft 530 kts 178°
2026-04-26 06:52 -11.10548 46.06147 37954 ft 531 kts 178°
2026-04-26 06:52 -11.15889 46.06464 37949 ft 530 kts 178°
2026-04-26 06:53 -11.23258 46.06903 37949 ft 530 kts 178°
2026-04-26 06:53 -11.30735 46.07348 37950 ft 530 kts 178°
2026-04-26 06:54 -11.38167 46.07791 37950 ft 529 kts 178°
2026-04-26 06:54 -11.45526 46.08229 37951 ft 530 kts 178°
2026-04-26 06:55 -11.52958 46.08672 37951 ft 528 kts 178°
2026-04-26 06:55 -11.60370 46.09114 37951 ft 529 kts 178°
2026-04-26 06:56 -11.67737 46.09554 37833 ft 519 kts 178°
2026-04-26 06:56 -11.71399 46.09773 36972 ft 519 kts 178°
2026-04-26 06:56 -11.75018 46.09989 35610 ft 528 kts 178°
2026-04-26 06:57 -11.78706 46.10209 34516 ft 528 kts 178°
2026-04-26 06:57 -11.82395 46.10430 33619 ft 527 kts 178°
2026-04-26 06:57 -11.86082 46.10650 32699 ft 526 kts 178°
2026-04-26 06:57 -11.89728 46.10869 31790 ft 526 kts 178°
2026-04-26 06:58 -11.93426 46.11090 31024 ft 523 kts 178°
2026-04-26 06:58 -11.97053 46.11308 30474 ft 513 kts 178°
2026-04-26 06:58 -12.00608 46.11521 29774 ft 502 kts 178°
2026-04-26 06:58 -12.04052 46.11727 28906 ft 493 kts 178°
2026-04-26 06:59 -12.07475 46.11932 27907 ft 486 kts 178°
2026-04-26 06:59 -12.10870 46.12135 26866 ft 480 kts 177°
2026-04-26 06:59 -12.14162 46.12329 25871 ft 473 kts 178°
2026-04-26 06:59 -12.17439 46.12235 24858 ft 467 kts 186°
2026-04-26 07:00 -12.20619 46.11612 23844 ft 462 kts 195°
2026-04-26 07:00 -12.23660 46.10469 22844 ft 457 kts 204°
2026-04-26 07:00 -12.26400 46.08876 21838 ft 456 kts 213°
2026-04-26 07:00 -12.28840 46.06821 21127 ft 454 kts 224°
2026-04-26 07:01 -12.30905 46.04383 20534 ft 448 kts 233°
2026-04-26 07:01 -12.32536 46.01654 19952 ft 442 kts 243°
2026-04-26 07:01 -12.33764 45.98824 19351 ft 437 kts 247°
2026-04-26 07:01 -12.34865 45.95946 18726 ft 432 kts 249°
2026-04-26 07:02 -12.35899 45.93060 18133 ft 426 kts 250°
2026-04-26 07:02 -12.36848 45.90236 17542 ft 421 kts 251°
2026-04-26 07:02 -12.37753 45.87397 16940 ft 416 kts 252°
2026-04-26 07:02 -12.38613 45.84589 16362 ft 411 kts 252°
2026-04-26 07:03 -12.39443 45.81797 15736 ft 406 kts 253°
2026-04-26 07:03 -12.40237 45.79059 15140 ft 402 kts 253°
2026-04-26 07:03 -12.41014 45.76335 14589 ft 395 kts 253°
2026-04-26 07:03 -12.41772 45.73644 14002 ft 390 kts 254°
2026-04-26 07:04 -12.42520 45.70967 13446 ft 384 kts 254°
2026-04-26 07:04 -12.43233 45.68397 13058 ft 366 kts 254°
2026-04-26 07:04 -12.43900 45.65983 12749 ft 347 kts 254°
2026-04-26 07:04 -12.44542 45.63657 12523 ft 327 kts 254°
2026-04-26 07:05 -12.45139 45.61486 12349 ft 308 kts 254°
2026-04-26 07:05 -12.45713 45.59389 11961 ft 300 kts 254°
2026-04-26 07:05 -12.46275 45.57328 11359 ft 300 kts 254°
2026-04-26 07:05 -12.46838 45.55264 10744 ft 300 kts 254°
2026-04-26 07:06 -12.47400 45.53202 10182 ft 298 kts 254°
2026-04-26 07:06 -12.47953 45.51170 9637 ft 296 kts 254°
2026-04-26 07:06 -12.48508 45.49131 9079 ft 294 kts 254°
2026-04-26 07:06 -12.49052 45.47135 8533 ft 293 kts 254°
2026-04-26 07:07 -12.49599 45.45123 7988 ft 292 kts 253°
2026-04-26 07:07 -12.50138 45.43142 7456 ft 290 kts 253°
2026-04-26 07:07 -12.50681 45.41146 6923 ft 288 kts 253°
2026-04-26 07:07 -12.51215 45.39182 6408 ft 286 kts 253°
2026-04-26 07:08 -12.51750 45.37214 5898 ft 284 kts 253°
2026-04-26 07:08 -12.52267 45.35309 5603 ft 274 kts 253°
2026-04-26 07:08 -12.52706 45.33692 5225 ft 272 kts 253°
2026-04-26 07:08 -12.53205 45.31853 4770 ft 270 kts 253°
2026-04-26 07:09 -12.53709 45.29998 4290 ft 268 kts 253°
2026-04-26 07:09 -12.54203 45.28177 3816 ft 267 kts 253°
2026-04-26 07:09 -12.54704 45.26331 3336 ft 265 kts 253°
2026-04-26 07:09 -12.55193 45.24528 3017 ft 261 kts 253°
2026-04-26 07:10 -12.57334 45.20002 2962 ft 217 kts 237°
2026-04-26 07:11 -12.58934 45.17571 2951 ft 213 kts 217°
2026-04-26 07:11 -12.60251 45.16938 2945 ft 208 kts 188°
2026-04-26 07:11 -12.61693 45.17043 2946 ft 206 kts 160°
2026-04-26 07:11 -12.63004 45.17635 2953 ft 205 kts 152°
2026-04-26 07:12 -12.64230 45.18310 2945 ft 190 kts 150°
2026-04-26 07:12 -12.65370 45.18978 2952 ft 183 kts 149°
2026-04-26 07:12 -12.66493 45.19643 2954 ft 184 kts 149°
2026-04-26 07:12 -12.67613 45.20309 2917 ft 185 kts 149°
2026-04-26 07:13 -12.68737 45.20976 2635 ft 185 kts 149°
2026-04-26 07:13 -12.69830 45.21624 2360 ft 177 kts 149°
2026-04-26 07:13 -12.70873 45.22243 2121 ft 164 kts 149°
2026-04-26 07:13 -12.71811 45.22799 1897 ft 144 kts 149°
2026-04-26 07:14 -12.72664 45.23306 1716 ft 138 kts 150°
2026-04-26 07:14 -12.73499 45.23801 1536 ft 138 kts 150°
2026-04-26 07:14 -12.74335 45.24296 1353 ft 138 kts 150°
2026-04-26 07:14 -12.75168 45.24792 1170 ft 139 kts 150°
2026-04-26 07:15 -12.76010 45.25297 987 ft 139 kts 150°
2026-04-26 07:15 -12.76854 45.25795 789 ft 139 kts 150°
2026-04-26 07:15 -12.77684 45.26285 615 ft 137 kts 150°
2026-04-26 07:15 -12.78520 45.26779 451 ft 139 kts 150°
2026-04-26 07:16 -12.79371 45.27291 277 ft 142 kts 151°
2026-04-26 07:16 -12.80231 45.27798 83 ft 141 kts 150°
2026-04-26 07:16 -12.80937 45.28217 35 ft 44 kts 150°
2026-04-26 07:16 -12.81127 45.28329 35 ft 29 kts 149°
2026-04-26 07:17 -12.81143 45.28339 35 ft 0 kts 149°